This is the latest recevied weather packets stored in our database for station/object KE8KMM. If no packets are shown the sender has not sent any weather packets the latest 10 day(s).
| Time | Temp. | Humidity | Pressure | Rain* | Wind** | Luminosity | Snow |
|---|---|---|---|---|---|---|---|
| 1776988627 | 22.22° C | 66% | 1010.4 hPa | 0 mm | - | 6 W/m² | - |
| 1776988323 | 22.78° C | 63% | 1010.3 hPa | 0 mm | - | 9 W/m² | - |
| 1776988019 | 22.78° C | 62% | 1010.6 hPa | 0 mm | - | 11 W/m² | - |
| 1776987715 | 22.78° C | 61% | 1010.7 hPa | 0 mm | - | 14 W/m² | - |
| 1776987413 | 23.33° C | 61% | 1010.5 hPa | 0 mm | - | 17 W/m² | - |
| 1776987109 | 23.33° C | 60% | 1010.7 hPa | 0 mm | - | 23 W/m² | - |
| 1776986805 | 23.89° C | 61% | 1010.5 hPa | 0 mm | - | 29 W/m² | - |
| 1776986502 | 23.89° C | 59% | 1010.7 hPa | 0 mm | - | 32 W/m² | - |
| 1776986198 | 22.22° C | 61% | 1010.6 hPa | 0 mm | - | 27 W/m² | - |
| 1776985895 | 22.78° C | 70% | 1010.5 hPa | 0 mm | - | 26 W/m² | - |
| 1776985593 | 23.89° C | 68% | 1010.3 hPa | 0 mm | - | 30 W/m² | - |
| 1776985288 | 24.44° C | 59% | 1010.2 hPa | 0 mm | - | 32 W/m² | - |
| 1776984984 | 25° C | 58% | 1010.1 hPa | 0 mm | - | 37 W/m² | - |
| 1776984680 | 25° C | 58% | 1010.1 hPa | 0 mm | - | 42 W/m² | - |
| 1776984376 | 26.11° C | 56% | 1010.2 hPa | 0 mm | - | 52 W/m² | - |
| 1776984072 | 26.67° C | 54% | 1010.4 hPa | 0 mm | - | 139 W/m² | - |
| 1776983767 | 26.67° C | 57% | 1010.1 hPa | 0 mm | - | 139 W/m² | - |
| 1776983463 | 26.67° C | 53% | 1010.3 hPa | 0 mm | - | 162 W/m² | - |
| 1776983161 | 26.67° C | 54% | 1010.3 hPa | 0 mm | - | 182 W/m² | - |
| 1776982858 | 26.67° C | 53% | 1010.4 hPa | 0 mm | - | 192 W/m² | - |
| 1776982555 | 26.67° C | 54% | 1010.2 hPa | 0 mm | - | 218 W/m² | - |
| 1776982250 | 26.67° C | 54% | 1010.2 hPa | 0 mm | - | 221 W/m² | - |
| 1776981944 | 27.22° C | 55% | 1010.3 hPa | 0 mm | - | 254 W/m² | - |
| 1776981641 | 26.67° C | 56% | 1010.5 hPa | 0 mm | - | 263 W/m² | - |
| 1776981336 | 27.78° C | 55% | 1010.5 hPa | 0 mm | - | 267 W/m² | - |
* Rain latest hour (hover to see other rain measurements)
** Current wind speed in m/s (hover to see current wind gust speed)